Location: Franzen
(48.6167°N, 15.3833°E)
Time: 20:41:34
(UTC+00:00)

Transit 2A - Pass Details

Date: 04 August 2021
Orbit: 594 x 964 km, 66.7° (Epoch: 27 September)

Event Time Altitude Azimuth Distance (km) Brightness Sun altitude
Rises 03:32:02 0° 172° (S) 2,831 8.7 -1.5°
Reaches altitude 10° 03:34:41 10° 155° (SSE) 1,956 8.1 -1.1°
Maximum altitude 03:37:52 20° 109° (ESE) 1,459 8.2 -0.7°
Drops below altitude 10° 03:41:12 10° 62° (ENE) 2,065 10.6 -0.2°
Sets 03:44:05 0° 46° (NE) 3,044 10.9 0.3°
